Weather reports worldwide

Advertisment
Manston, United Kingdom (3797): temperature & dewpoint: 15.09.2017 02:00:00 - 21.09.2017 02:00:00 (BST)Manston, United Kingdom (3797): temperature -20cm & temperature -100cm: 15.09.2017 02:00:00 - 21.09.2017 02:00:00 (BST)Manston, United Kingdom (3797): wind speed: 15.09.2017 02:00:00 - 21.09.2017 02:00:00 (BST)Manston, United Kingdom (3797): wind direction: 15.09.2017 02:00:00 - 21.09.2017 02:00:00 (BST)Manston, United Kingdom (3797): reduced air pressure: 15.09.2017 02:00:00 - 21.09.2017 02:00:00 (BST)Manston, United Kingdom (3797): visibility: 15.09.2017 02:00:00 - 21.09.2017 02:00:00 (BST)Manston, United Kingdom (3797): sunshine duration: 15.09.2017 02:00:00 - 21.09.2017 02:00:00 (BST)Manston, United Kingdom (3797): precipitation: 15.09.2017 02:00:00 - 21.09.2017 02:00:00 (BST)
Date & Time tt [°C] td [°C] tt -20cm [°C] tt -100cm [°C] ff [km/h] ff [kn] dd ppp [hPa] vv [km] sd [min] rr [mm]
21.09.2017 02:00:00 12,4 10,9 - - 13 7 SSE 1017,7 21 0 0,0
21.09.2017 01:00:00 11,9 10,7 - - 13 7 SSE 1017,9 19 - 0,0
21.09.2017 00:00:00 11,7 10,4 - - 11 6 SSE 1018,2 20 0 0,0
20.09.2017 23:00:00 11,7 10,4 - - 9 5 SSE 1018,3 20 0 0,0
20.09.2017 22:00:00 11,9 10,4 - - 8 4 SSE 1018,3 20 0 0,0
20.09.2017 21:00:00 12,2 10,4 - - 9 5 S 1018,5 35 0 0,0
20.09.2017 20:00:00 12,9 10,8 - - 11 6 S 1018,5 30 0 0,0
20.09.2017 19:00:00 14,6 11,6 - - 15 8 SSW 1018,2 30 6 0,0
20.09.2017 18:00:00 15,4 11,5 - - 18 10 SSW 1018,3 35 0 0,0
20.09.2017 17:00:00 16,1 12,2 - - 16 9 SW 1018,6 35 0 0,0
20.09.2017 16:00:00 15,2 11,8 - - 18 10 SW 1019,3 40 0 0,0
20.09.2017 15:00:00 15,6 11,1 - - 24 13 SW 1019,5 30 0 0,0
20.09.2017 14:00:00 16,2 11,8 - - 21 11 SSW 1019,4 29 0 0,0
20.09.2017 13:00:00 17,5 11,7 - - 21 11 SW 1019,6 50 0 0,0
20.09.2017 12:00:00 16,5 11,7 - - 18 10 SW 1019,9 40 0 0,0
20.09.2017 11:00:00 15,8 12,4 - - 16 9 SW 1020,3 50 12 0,0
20.09.2017 10:00:00 14,3 12,6 12,9 14,9 15 8 SW 1020,4 28 0 0,0
20.09.2017 09:00:00 12,5 11,4 - - 11 6 SW 1020,3 17 18 0,0
20.09.2017 08:00:00 11,2 10,5 - - 13 7 SW 1020,3 13 54 0,0
20.09.2017 07:00:00 9,4 8,8 - - 15 8 SW 1020,4 10 0 0,0
20.09.2017 06:00:00 8,8 8,0 - - 13 7 SW 1020,4 15 0 0,0
20.09.2017 05:00:00 8,8 8,0 - - 13 7 WSW 1020,5 16 0 0,0
20.09.2017 04:00:00 8,9 8,2 - - 15 8 WSW 1020,8 13 0 0,0
20.09.2017 03:00:00 8,3 7,7 - - 13 7 SW 1021,1 10 0 0,0
20.09.2017 02:00:00 8,5 7,4 - - 13 7 SW 1021,5 13 - 0,0
20.09.2017 01:00:00 8,8 7,4 - - 13 7 SSW 1021,7 21 - 0,0
20.09.2017 00:00:00 8,5 6,9 - - 13 7 SW 1022,0 19 0 0,0
19.09.2017 23:00:00 8,9 7,4 - - 15 8 SW 1022,2 17 0 0,0
19.09.2017 22:00:00 9,7 7,5 - - 11 6 SW 1022,2 20 0 0,0
19.09.2017 21:00:00 10,7 7,7 - - 8 4 SW 1022,3 29 0 0,0
19.09.2017 20:00:00 11,1 7,9 - - 9 5 W 1022,0 35 0 0,0
19.09.2017 19:00:00 12,0 8,6 - - 9 5 WNW 1021,9 40 36 0,0
19.09.2017 18:00:00 13,9 9,0 - - 11 6 WNW 1021,7 30 60 0,0
19.09.2017 17:00:00 14,2 9,1 - - 11 6 WNW 1021,6 30 60 0,0
19.09.2017 16:00:00 13,8 9,3 - - 16 9 NW 1022,0 17 60 0,0
19.09.2017 15:00:00 13,7 10,1 - - 16 9 NW 1022,1 21 6 0,0
19.09.2017 14:00:00 13,7 9,9 - - 24 13 NW 1021,9 19 24 0,0
19.09.2017 13:00:00 13,7 10,2 - - 18 10 WNW 1021,7 18 24 0,0
19.09.2017 12:00:00 12,8 10,2 - - 21 11 WNW 1021,7 17 6 0,0
19.09.2017 11:00:00 12,2 10,1 - - 15 8 WNW 1020,9 12 0 0,0
19.09.2017 10:00:00 12,1 10,3 13,2 15,0 16 9 NW 1020,8 13 24 0,0
19.09.2017 09:00:00 11,7 10,1 - - 18 10 NW 1020,3 15 30 0,0
19.09.2017 08:00:00 10,6 8,9 - - 24 13 NW 1020,0 12 42 0,0
19.09.2017 07:00:00 10,1 8,5 - - 18 10 NW 1019,4 21 0 0,0
19.09.2017 06:00:00 10,6 8,8 - - 22 12 NW 1019,1 15 0 0,0
19.09.2017 05:00:00 10,9 8,9 - - 26 14 NNW 1018,7 30 0 0,0
19.09.2017 04:00:00 11,1 8,6 - - 22 12 NW 1018,6 45 0 0,0
19.09.2017 03:00:00 11,4 8,9 - - 18 10 NW 1018,5 35 0 0,0
19.09.2017 02:00:00 11,7 9,6 - - 18 10 NW 1018,5 30 0 0,0
19.09.2017 01:00:00 12,3 9,1 - - 21 11 NW 1018,4 40 - 0,0
19.09.2017 00:00:00 12,3 8,8 - - 18 10 NNW 1018,3 40 0 0,0
18.09.2017 23:00:00 12,2 9,0 - - 16 9 NNW 1018,5 35 0 0,0
18.09.2017 22:00:00 12,4 9,7 - - 15 8 NW 1018,3 30 0 0,0
18.09.2017 21:00:00 12,6 9,9 - - 15 8 NW 1018,1 45 0 0,0
18.09.2017 20:00:00 12,9 9,5 - - 18 10 NNW 1017,6 50 0 0,0
18.09.2017 19:00:00 13,5 9,4 - - 22 12 NW 1017,3 45 0 0,0
18.09.2017 18:00:00 13,8 9,6 - - 22 12 NW 1017,1 30 30 0,0
18.09.2017 17:00:00 15,0 9,6 - - 28 15 NW 1016,7 27 30 0,0
18.09.2017 16:00:00 15,9 10,0 - - 26 14 NW 1016,4 35 60 0,0
18.09.2017 15:00:00 15,2 10,2 - - 21 11 NW 1016,4 30 18 0,0
18.09.2017 14:00:00 15,7 10,7 - - 21 11 NW 1016,3 27 60 0,0
18.09.2017 13:00:00 15,0 11,0 - - 26 14 NNW 1016,2 27 30 0,0
18.09.2017 12:00:00 13,9 10,4 - - 21 11 NW 1016,3 35 6 0,0
18.09.2017 11:00:00 13,3 10,7 - - 24 13 NW 1016,0 28 0 0,0
18.09.2017 10:00:00 12,5 10,6 13,5 15,0 22 12 NW 1016,0 22 0 0,0
18.09.2017 09:00:00 12,3 10,7 - - 21 11 NW 1015,6 22 0 0,0
18.09.2017 08:00:00 11,8 10,6 - - 22 12 NW 1015,2 24 0 0,0
18.09.2017 07:00:00 11,6 10,9 - - 18 10 WNW 1015,1 11 0 0,0
18.09.2017 06:00:00 11,0 10,8 - - 15 8 WNW 1014,9 5 0 0,0
18.09.2017 05:00:00 11,0 10,6 - - 18 10 NW 1014,8 6 0 0,0
18.09.2017 04:00:00 11,4 10,6 - - 13 7 WNW 1014,5 11 0 0,0
18.09.2017 03:00:00 11,5 10,5 - - 15 8 NW 1014,6 22 0 0,0
18.09.2017 02:00:00 12,2 10,9 - - 16 9 NW 1014,6 30 0 0,0
18.09.2017 01:00:00 11,1 10,2 - - 13 7 WNW 1014,8 22 - 0,0
18.09.2017 00:00:00 11,3 9,7 - - 8 4 WNW 1014,8 45 0 0,0
17.09.2017 23:00:00 12,5 10,7 - - 11 6 NNW 1014,8 40 0 0,0
17.09.2017 22:00:00 12,4 10,9 - - 9 5 WNW 1014,7 50 0 0,0
17.09.2017 21:00:00 12,1 10,9 - - 8 4 WNW 1014,5 50 0 0,0
17.09.2017 20:00:00 12,6 10,8 - - 9 5 NW 1014,1 45 0 0,0
17.09.2017 19:00:00 13,3 10,5 - - 9 5 WNW 1013,5 45 0 0,0
17.09.2017 18:00:00 13,8 9,6 - - 11 6 WNW 1013,4 50 0 0,0
17.09.2017 17:00:00 14,1 9,7 - - 13 7 NW 1013,0 40 18 0,0
17.09.2017 16:00:00 14,7 10,9 - - 13 7 WNW 1012,9 30 42 0,0
17.09.2017 15:00:00 13,1 10,6 - - 11 6 WNW 1013,1 40 0 0,0
17.09.2017 14:00:00 12,8 10,7 - - 9 5 NW 1013,3 50 0 0,0
17.09.2017 13:00:00 13,4 10,6 - - 11 6 NW 1013,4 35 6 0,0
17.09.2017 12:00:00 12,5 10,7 - - 9 5 WNW 1013,4 30 6 0,0
17.09.2017 11:00:00 11,6 10,4 - - 9 5 NW 1013,3 45 0 0,0
17.09.2017 10:00:00 10,6 10,0 13,4 15,2 11 6 W 1013,2 13 0 0,0
17.09.2017 09:00:00 10,4 10,0 - - 9 5 WNW 1012,9 13 0 0,0
17.09.2017 08:00:00 10,4 10,2 - - 8 4 WNW 1012,6 8 0 0,0
17.09.2017 07:00:00 10,0 9,8 - - 9 5 WNW 1012,1 14 0 0,0
17.09.2017 06:00:00 9,8 9,8 - - 9 5 WNW 1011,7 7 0 0,0
17.09.2017 05:00:00 9,4 9,4 - - 13 7 WNW 1011,4 10 0 0,2
17.09.2017 04:00:00 7,7 7,6 - - 11 6 W 1011,5 6 0 0,0
17.09.2017 03:00:00 8,0 7,9 - - 9 5 W 1011,4 5 - 0,0
17.09.2017 02:00:00 8,3 8,2 - - 11 6 WSW 1011,5 4,2 0 0,0
17.09.2017 01:00:00 8,4 8,2 - - 13 7 WSW 1011,6 6 - 0,0
17.09.2017 00:00:00 8,9 8,7 - - 11 6 W 1011,6 10 0 0,0
16.09.2017 23:00:00 9,8 9,3 - - 9 5 WSW 1011,5 9 0 0,0
16.09.2017 22:00:00 11,0 10,5 - - 11 6 WSW 1011,4 13 0 0,0
16.09.2017 21:00:00 10,8 9,8 - - 11 6 W 1011,3 35 0 0,0
16.09.2017 20:00:00 10,7 8,8 - - 11 6 SW 1011,1 16 0 0,0
16.09.2017 19:00:00 12,0 8,4 - - 8 4 NW 1010,6 50 0 0,0
16.09.2017 18:00:00 13,5 9,2 - - 11 6 WNW 1010,5 50 0 0,0
16.09.2017 17:00:00 13,8 8,5 - - 11 6 WNW 1010,2 35 6 0,0
16.09.2017 16:00:00 14,0 9,0 - - 13 7 W 1010,3 50 54 0,0
16.09.2017 15:00:00 14,6 8,7 - - 9 5 NW 1010,4 40 54 0,0
16.09.2017 14:00:00 12,8 9,2 - - 11 6 NW 1010,9 30 24 0,0
16.09.2017 13:00:00 13,8 10,2 - - 13 7 NW 1011,2 40 6 0,0
16.09.2017 12:00:00 12,7 9,8 - - 16 9 WNW 1011,4 19 12 0,0
16.09.2017 11:00:00 12,8 10,4 - - 18 10 WNW 1011,4 27 36 0,0
16.09.2017 10:00:00 12,6 10,5 13,7 15,2 13 7 WNW 1011,5 28 42 0,0
16.09.2017 09:00:00 11,4 10,7 - - 11 6 W 1011,3 7 48 0,0
16.09.2017 08:00:00 9,7 9,5 - - 11 6 WNW 1011,0 7 24 0,0
16.09.2017 07:00:00 7,5 7,2 - - 11 6 W 1010,8 3,6 0 0,0
16.09.2017 06:00:00 7,7 7,4 - - 15 8 W 1010,7 3,2 0 0,0
16.09.2017 05:00:00 8,5 7,9 - - 13 7 WSW 1011,0 8 0 0,0
16.09.2017 04:00:00 10,4 9,1 - - 11 6 NW 1011,2 30 0 0,0
16.09.2017 03:00:00 11,0 9,7 - - 13 7 NW 1011,5 19 - 0,0
16.09.2017 02:00:00 11,6 9,9 - - 16 9 NNW 1011,7 25 0 0,0
16.09.2017 01:00:00 11,6 10,6 - - 16 9 NW 1011,8 17 - 1,8
16.09.2017 00:00:00 12,3 10,5 - - 16 9 NNW 1012,3 17 0 0,0
15.09.2017 23:00:00 12,3 10,7 - - 15 8 NNW 1012,2 26 0 0,0
15.09.2017 22:00:00 12,3 10,6 - - 16 9 NNW 1012,1 40 0 0,0
15.09.2017 21:00:00 12,3 10,3 - - 18 10 NNW 1012,4 35 0 0,0
15.09.2017 20:00:00 12,6 10,0 - - 15 8 N 1012,3 50 0 0,2
15.09.2017 19:00:00 12,0 10,5 - - 11 6 N 1012,3 11 0 1,4
15.09.2017 18:00:00 14,5 7,1 - - 9 5 WNW 1011,7 50 36 0,0
15.09.2017 17:00:00 15,2 6,8 - - 11 6 WNW 1011,7 35 60 0,0
15.09.2017 16:00:00 15,2 7,5 - - 13 7 NW 1011,8 35 60 0,0
15.09.2017 15:00:00 15,0 8,3 - - 13 7 NW 1012,2 29 60 0,0
15.09.2017 14:00:00 14,4 7,9 - - 18 10 NW 1012,3 23 60 0,0
15.09.2017 13:00:00 14,2 8,2 - - 16 9 NW 1012,6 24 60 0,0
15.09.2017 12:00:00 13,5 8,7 - - 16 9 WNW 1012,7 35 54 0,0
15.09.2017 11:00:00 11,7 8,6 - - 15 8 WNW 1012,7 23 30 0,0
15.09.2017 10:00:00 11,8 9,0 13,2 15,5 18 10 WNW 1012,7 24 42 0,0
15.09.2017 09:00:00 10,6 9,1 - - 15 8 W 1012,4 30 24 0,0
15.09.2017 08:00:00 8,7 7,8 - - 13 7 W 1012,3 25 24 0,0
15.09.2017 07:00:00 6,9 6,1 - - 13 7 W 1012,3 17 0 0,0
15.09.2017 06:00:00 7,7 6,8 - - 15 8 W 1012,4 20 0 0,0
15.09.2017 05:00:00 7,5 6,2 - - 13 7 W 1012,5 20 0 0,0
15.09.2017 04:00:00 9,3 7,4 - - 13 7 W 1012,5 25 0 0,0
15.09.2017 03:00:00 8,2 6,9 - - 11 6 W 1012,5 22 0 0,0
15.09.2017 02:00:00 10,3 8,0 - - 15 8 WNW 1012,6 35 - 0,0

tt = temperature
td = dewpoint
tt -20cm = temperature -20cm
tt -100cm = temperature -100cm
ff = wind speed
dd = wind direction
ppp = reduced air pressure
vv = visibility
sd = sunshine duration
rr = precipitation

Next stations